Location: *
(51.1248°S, 108.4023°W)
Time: 11:53:08
(UTC+00:00)

Tiangong - Pass Details

Date: 28 September 2021
Orbit: 382 x 385 km, 41.5° (Epoch: 18 October)

Event Time Altitude Azimuth Distance (km) Brightness Sun altitude
Rises 02:59:25 0° 290° (WNW) 2,287 5.7 -15.9°
Reaches altitude 10° 03:02:29 10° 321° (NW) 1,429 4.1 -16.3°
Maximum altitude 03:03:50 12° 346° (NNW) 1,307 3.6 -16.5°
Enters shadow 03:04:06 12° 352° (N) 1,312 3.6 -16.6°
